Home > Weather > Porto Alegre > Past weeks

Flag for Brazil Past Weather in Porto Alegre, Rio Grande do Sul, Brazil — Yesterday and Last 2 Weeks

Now
55 °F

Passing clouds.


Feels Like: 54 °F
Forecast: 56 / 76 °F
Wind: 6 mph from South

Location: Porto Alegre Aero-Porto

Current Time: Jul 24, 2016 at 11:38:05 PM

Latest Report: Jul 24, 2016 at 11:00 PM


Visibility: N/A

Pressure: 30.15 "Hg

Humidity: 88%

Dew Point: 52 °F

Location of Porto AlegreLocation

Past Weather in Porto Alegre — Graph

°F

Porto Alegre Temperature Yesterday

Maximum temperature yesterday: 72 °F (at 4:00 PM)
Minimum temperature yesterday: 45 °F (at 7:00 AM)
Average temperature yesterday: 56 °F

High & Low Weather Summary for the Past Weeks

 TemperatureHumidityPressure
High72 °F (Jul 23, 4:00 PM)100% (Jul 9, 11:00 PM)30.33 "Hg (Jul 9, 11:00 PM)
Low39 °F (Jul 11, 3:00 AM)41% (Jul 15, 1:00 AM)29.71 "Hg (Jul 11, 6:00 PM)
Average54 °F83%30.08 "Hg
* Reported Jul 9 10:00 PM — Jul 24 10:00 PM, Porto Alegre, Weather by CustomWeather, © 2016

Note: Actual official high and low records may vary slightly from our data, if they occured in-between our weather recording intervals... More about our weather records

Advertising

Porto Alegre Weather History for the Previous 24 Hours

Scroll right to see more
 ConditionsComfort  
Time TempWeatherWind HumidityBarometerVisibility
10:00 PM
Sun, Jul 24
55 °FClear.8 mph82%30.15 "Hg10 mi
9:00 PM57 °FClear.9 mph77%30.15 "Hg10 mi
8:00 PM57 °FClear.8 mph77%30.12 "Hg10 mi
7:00 PM59 °FClear.7 mph72%30.12 "Hg10 mi
6:00 PM59 °FClear.8 mph68%30.12 "Hg10 mi
5:00 PM63 °FClear.9 mph59%30.09 "Hg10 mi
4:00 PM66 °FPassing clouds.10 mph60%30.09 "HgN/A
3:00 PM68 °FPassing clouds.9 mph60%30.09 "HgN/A
2:00 PM68 °FPassing clouds.8 mph69%30.09 "HgN/A
1:00 PM70 °FSunny.8 mph60%30.12 "Hg10 mi
12:00 PM68 °FSunny.7 mph60%30.12 "Hg10 mi
11:00 AM64 °FSunny.5 mph73%30.12 "Hg10 mi
10:00 AM63 °FSunny.5 mph73%30.12 "Hg10 mi
9:00 AM59 °FSunny.2 mph88%30.09 "Hg10 mi
8:00 AM52 °FClear.2 mph88%30.09 "Hg4 mi
7:00 AM54 °FClear.No wind88%30.07 "Hg4 mi
6:00 AM54 °FFog.5 mph94%30.04 "Hg3 mi
5:00 AM54 °FFog.2 mph88%30.04 "Hg2 mi
4:00 AM55 °FFog.2 mph88%30.04 "Hg2 mi
3:00 AM57 °FFog.2 mph88%30.04 "Hg2 mi
2:00 AM57 °FFog.No wind88%30.01 "Hg3 mi
1:00 AM59 °FFog.2 mph82%30.01 "Hg3 mi
12:00 AM57 °FFog.No wind88%30.01 "Hg3 mi
11:00 PM
Sat, Jul 23
59 °FFog.3 mph82%30.01 "Hg3 mi
Weather by CustomWeather, © 2016

See weather overviewHow to use our weather pages